Regional Weather Roundup
Issued by NWS Grand Forks, ND

Home | Current Version | Previous Version | Graphics & Text | Print | Product List | Glossary On
Versions: 1 2 3 4 5 6 7 8 9 10 11 12 13 14 15 16 17 18 19 20 21 22 23 24 25 26 27 28 29 30 31 32 33 34 35 36 37 38 39 40 41 42 43 44 45 46 47 48 49 50
000
ASUS43 KFGF 290810
RWRFGF
PRAIRIE TO PINES  WEATHER ROUNDUP
NATIONAL WEATHER SERVICE EASTERN NORTH DAKOTA/GRAND FORKS ND
300 AM CDT FRI MAY 29 2015

 **SATELLITE DATA USED TO AUGMENT SKY COVER AT AUTOMATED STATIONS**
 *****  WEATHER ACROSS EASTERN NORTH DAKOTA  *****

CITY           SKY/WX    TMP DP  RH WIND       PRES   REMARKS
GRAND FORKS    CLOUDY    52  49  89 N23G32    29.93R
GRAND FRKS AFB CLOUDY    51  47  86 N24G35    29.95R
GRAND FRKS NWS   N/A     50 N/A N/A N18         N/A
DEVILS LAKE    CLOUDY    52  43  71 N23G33    30.00R
FARGO          LGT RAIN  63  61  93 CALM      29.85S
WAHPETON ARPT  CLOUDY    59  55  88 CALM      29.85F
$$

 ***** WEATHER ACROSS CENTRAL AND WESTERN NORTH DAKOTA  *****

CITY           SKY/WX    TMP DP  RH WIND       PRES   REMARKS
BISMARCK       CLOUDY    54  49  83 N17G28    30.02R
MINOT          CLOUDY    49  40  71 N21G32    30.10S
JAMESTOWN      CLOUDY    59  55  87 N22       29.91R
MINOT AFB      CLOUDY    49  48  99 N20G26    30.11R
GARRISON         N/A     50  42  74 N15G32    30.07R
WILLISTON      CLOUDY    47  35  63 N17       30.21R
DICKINSON      CLOUDY    49  45  86 N16G24    30.09R
HETTINGER      CLOUDY    51  47  86 N22G31    30.06R
$$

 *****  OTHER AIRPORT OBSERVATIONS IN OUR AREA  *****

CITY           SKY/WX    TMP DP  RH WIND       PRES   REMARKS
WALHALLA       FAIR      48  48 100 MISG      30.04R
GRAFTON AIRPOR CLOUDY    50  50 100 N23G32    29.96R
VALLEY CITY AR CLOUDY    59  59 100 N17G25    29.90R
CANDO          CLOUDY    48  45  87 N21G30    30.04R
CAVALIER APRT  NOT AVBL
GWINNER        NOT AVBL
SHEYENNE NWR     N/A     60  60  99 CALM      29.95S
ROLLA          MIX PCPN  45  45 100 N28G33    30.07S
 ***** THE ABOVE OBSERVATIONS ARE NON NWS ARE NOT QUALITY
       CONTROLLED AND MAY MIS-REPORT RAIN FOR SNOW...
$$

  *****  WEATHER ACROSS NORTHERN MINNESOTA  *****

CITY           SKY/WX    TMP DP  RH WIND       PRES   REMARKS
FLAG ISLAND    CLOUDY    57  54  88 N17       29.86R
WARROAD        CLOUDY    57  54  88 NW9G16    29.88R
ROSEAU         CLOUDY    55  52  88 N10       29.89R
HALLOCK        CLOUDY    52  46  82 N26G32    29.95R
THF RVR FALLS  CLOUDY    59  55  88 N18G24    29.88R
BAUDETTE       CLOUDY    60  58  92 NW16G23   29.83S
WASKISH        HVY RAIN  61  61 100 SW12      29.84F
CROOKSTON      CLOUDY    59  55  88 N24G30    29.89R
$$
  *****  WEATHER ACROSS CENTRAL AND WEST MINNESOTA  *****

CITY           SKY/WX    TMP DP  RH WIND       PRES   REMARKS
FOSSTON        LGT RAIN  59  57  94 SW8       29.87S
BEMIDJI        RAIN      58  57  96 W5        29.86S
PARK RAPIDS    CLOUDY    60  58  92 NW8       29.84F
ELBOW LAKE     PTSUNNY   59  58  98 SW3       29.85R
WADENA         CLOUDY    59  57  94 CALM      29.83F
DETROIT LAKES  LGT RAIN  59  59 100 W3        29.87F
MOORHEAD       LGT RAIN  61  61 100 CALM      29.86R
FERGUS FALLS   CLOUDY    61  61 100 NW6       29.87S
MORRIS MN      CLOUDY    61  61 100 S6        29.83F
STAPLES        CLOUDY    59  57  94 CALM      29.84S
$$
  *****  WEATHER ELSEWHERE ACROSS MINNESOTA  *****

CITY           SKY/WX    TMP DP  RH WIND       PRES   REMARKS
DULUTH         CLOUDY    49  44  83 CALM      29.88S
INTRNTL FALLS  LGT RAIN  59  57  93 VRB3      29.82F
ELY            NOT AVBL
CLOQUET        CLOUDY    45  43  93 CALM      29.89R
WHEATON        LGT RAIN  59  57  94 CALM      29.83F
BRAINERD       CLOUDY    62  57  83 CALM      29.84F
HIBBING        CLOUDY    53  47  79 CALM      29.86F
ALEXANDRIA     CLOUDY    60  58  92 SE7       29.85F
SAINT CLOUD    CLOUDY    65  59  81 SW5       29.87F
MINNEAPOLIS    LGT RAIN  67  62  84 S13       29.89F
$$

  *****  WEATHER ACROSS SOUTH DAKOTA  *****

CITY           SKY/WX    TMP DP  RH WIND       PRES   REMARKS
SIOUX FALLS    CLOUDY    67  64  90 S12       29.86S
BROOKINGS      CLOUDY    64  61  88 N7        29.88R
WATERTOWN      CLOUDY    60  57  89 E9        29.84F
HURON            N/A    N/A N/A N/A MISG      29.82F
SISSETON         N/A     60  60 100 W3        29.83F
ABERDEEN       CLOUDY    62  60  93 N3        29.86S
MITCHELL       CLOUDY    64  60  87 S5        29.84S
PIERRE         CLOUDY    60  58  92 NW8       29.87R
MOBRIDGE       CLOUDY    63  60  90 N10       29.89R
RAPID CITY     CLOUDY    57  51  80 N22G29    30.03R
$$

  *****  SOME WEATHER IN NEARBY STATES *****

CITY           SKY/WX    TMP DP  RH WIND       PRES   REMARKS
GLASGOW MT     CLEAR     40  36  86 NE8       30.27S
GREAT FALLS MT CLOUDY    45  44  97 NE6       30.31F FOG
CHEYENNE WY    CLOUDY    50  40  68 N9        30.16F
SCOTTSBLUFF NE MOCLDY    53  50  89 NW6       30.07R
OMAHA NE       CLOUDY    67  64  90 S10       29.91F
DES MOINES IA  MOCLDY    64  61  90 S5        29.95S
DAVENPORT IA   LGT RAIN  67  62  84 SE6       30.01S
CHICAGO IL     MOCLDY    66  57  72 S8        30.05R
EAU CLAIRE WI  LGT RAIN  63  60  90 E5        29.94F
LA CROSSE WI   LGT RAIN  65  60  84 E7        29.96F
$$

  *****  SOME NATIONAL WEATHER *****

CITY           SKY/WX    TMP DP  RH WIND       PRES   REMARKS
LA GUARDIA NY  CLEAR     67  53  61 NE5       30.25S
RALEIGH NC     MOCLDY    70  66  87 CALM      30.20F
ATLANTA GA     PTCLDY    67  64  90 E5        30.14F
NEW ORLEANS LA PTCLDY    75  71  87 SE6       30.03F
OKLAHOMA CITY  CLOUDY    66  61  84 NE7       29.92F
ALBUQUERQUE NM CLEAR     67  32  27 NW8       30.09S
SALT LAKE CITY PTCLDY    55  45  68 S6        30.15S
LOS ANGELES CA MOCLDY    59  56  89 W6        29.96S
BOISE ID       CLEAR     61  47  59 SE9       30.05S
SEATTLE WA     PTCLDY    62  54  74 CALM      30.00S
$$

*** WEATHER ACROSS MANITOBA...SASKATCHEWAN AND ONTARIO ***
                ***ONTARIO***

CITY           SKY/WX    TMP DP  RH WIND       PRES   REMARKS
GERALDTON      MOCLDY    52  50  93 VRB2      29.90F
THUNDER BAY    MOCLDY    46  46 100 S5        29.90F
SIOUX LOOKOUT  LGT RAIN  55  55 100 CALM      29.81F VSB 3/4
TORONTO        PTCLDY    61  52  72 CALM      30.24S
BIG TROUT LK   RAIN      37  37 100 E13G20    29.99S
PICKLE LAKE    NOT AVBL
DRYDEN         LGT RAIN  57  55  94 W8        29.82S VSB 1
KENORA         LGT RAIN  55  54  94 N13G18    29.86R
$$
                *** MANITOBA***

CITY           SKY/WX    TMP DP  RH WIND       PRES   REMARKS
BRANDON        CLOUDY    46  37  71 N10       30.14R
DAUPHIN        LGT RAIN  43  41  93 N14G21    30.20R FOG
ISLAND LAKE    LGT RAIN  36  34  93 N12G18    30.00R
PILOT MOUND      N/A     45  41  87 N22G29      N/A
THE PAS        PTCLDY    34  27  75 N16       30.30R WCI  23
THOMPSON       LGT SNOW  28  27  93 N13       30.27S WCI  18
WINNIPEG       CLOUDY    45  41  87 N22G35    30.04R
LYNN LAKE      CLEAR     27  25  93 N6        30.36S WCI  20
CHURCHILL      FLURRIES  27  23  86 NE13      30.40S WCI  16
GILLAM         LGT SNOW  27  25  93 NE16      30.26R VSB 5/8 WCI  14
$$
                ***SASKATCHEWAN***

CITY           SKY/WX    TMP DP  RH WIND       PRES   REMARKS
ESTEVAN        CLOUDY    45  36  70 N12G20    30.22R
KINDERSLEY     PTCLDY    36  30  80 NE8       30.33R
LLOYDMINSTER   CLEAR     36  28  75 SE3       30.35S
PRINCE ALBERT  PTCLDY    32  27  80 NE7       30.37R
REGINA         CLOUDY    41  30  65 N9        30.29R
YORKTON        MOCLDY    39  32  75 N21G28    30.26R
N. BATTLEFORD  CLEAR     34  30  86 NE7       30.38S
LA RONGE       PTCLDY    32  23  69 NE5       30.40R
SASKATOON      CLEAR     32  28  86 N7        30.36R
SWIFT CURRENT  CLEAR     36  28  75 E9        30.30S
$$
NOTE: THESE ARE AUTOMATED STATIONS WITH LIMITED QUALITY CONTROL
      "FAIR" INDICATES FEW OR NO CLOUDS BELOW 12,000 FEET WITH NO
      SIGNIFICANT WEATHER AND/OR OBSTRUCTIONS TO VISIBILITY.
      SKY/WX - SKY CONDITION AND SIGNIFICANT WEATHER.
      TMP - AIR TEMPERATURE.    DP   - DEWPOINT TEMPERATURE.
      RH  - RELATIVE HUMIDITY.  PRES - PRESSURE.
      HX  - HEAT INDEX.         WCI  - WIND CHILL INDEX.
$


USA.gov is the U.S. government's official web portal to all federal, state and local government web resources and services.